Regional Weather Roundup
Issued by NWS

Home | Current Version | Previous Version | Text Only | Print | Product List | Glossary Off
Versions: 1 2 3 4 5 6 7 8 9 10 11 12 13 14 15 16 17 18 19 20 21 22 23 24 25 26 27 28 29 30 31 32 33 34 35 36 37 38 39 40 41 42 43 44 45 46 47 48 49 50

000
ASUS43 KLOT 261810
RWRIL

ILLINOIS REGIONAL WEATHER ROUNDUP
NATIONAL WEATHER SERVICE CHICAGO/ROMEOVILLE IL
1200 PM CST FRI DEC 26 2014

NOTE: "FAIR" INDICATES FEW OR NO CLOUDS BELOW 12,000 FEET WITH NO
SIGNIFICANT WEATHER AND/OR OBSTRUCTIONS TO VISIBILITY.

* THESE STATIONS ARE NOT UNDER NWS QUALITY CONTROL. THEY ALSO MAY NOT
  REPORT WEATHER SUCH AS PRECIPITATION OR FOG.

ILZ001-002-007-009-015-016-024-261900-
NORTHWEST ILLINOIS

CITY           SKY/WX    TMP DP  RH WIND       PRES   REMARKS
MOLINE         FAIR      49  36  61 SW13      29.97F
6HR MIN TEMP:  41; 6HR MAX TEMP:  49;

STERLING*      FAIR      52  37  58 W12G18    29.98F
SAVANNA*       FAIR      48  36  62 SW8       29.97S
$$

ILZ003-004-008-010-011-017-018-261900-
NORTH CENTRAL ILLINOIS

CITY           SKY/WX    TMP DP  RH WIND       PRES   REMARKS
ROCKFORD       CLOUDY    46  36  68 SW13      29.99F
6HR MIN TEMP:  33; 6HR MAX TEMP:  46;

FREEPORT*      FAIR      45  37  74 SW10      29.98F
ROCHELLE*      FAIR      49  40  71 SW12      29.99S
DE KALB*       FAIR      46  38  73 SW14      29.99F
PERU*          FAIR      50  38  63 SW10G17   30.00F
$$

ILZ005-006-012>014-019>023-261900-
NORTHEAST ILLINOIS

CITY           SKY/WX    TMP DP  RH WIND       PRES   REMARKS
CHICAGO-OHARE  PTSUNNY   46  36  68 SW13G20   30.00F
6HR MIN TEMP:  36; 6HR MAX TEMP:  46;

CHICAGO-MIDWAY PTSUNNY   49  37  63 SW12      30.01F
6HR MIN TEMP:  38; 6HR MAX TEMP:  49;

AURORA         FAIR      48  37  65 S14       30.01F
6HR MIN TEMP:  31; 6HR MAX TEMP:  48;

LANSING*       FAIR      47  39  72 SW14      30.04F
JOLIET*        FAIR      48  37  66 SW14G20   30.02F
WAUKEGAN       FAIR      48  35  60 SW13      29.98F
6HR MIN TEMP:  36; 6HR MAX TEMP:  48;

DUPAGE AIRPORT FAIR      47  37  68 SW15      30.00F
6HR MIN TEMP:  32; 6HR MAX TEMP:  47;

KANKAKEE*      FAIR      50  42  73 SW20G28   30.05F
WHEELING       FAIR      47  35  63 SW9       30.01F
6HR MIN TEMP:  36; 6HR MAX TEMP:  47;

MORRIS*        FAIR      48  40  74 SW14      30.01F
ROMEOVILLE*    FAIR      49  38  65 W13G20    30.01F
NORTHERLY ISL    N/A     46  35  65 SW7         N/A
$$

LMZ740>746-261900-
SOUTHERN LAKE MICHIGAN

STATION/POSITION SKY/WX   TEMP    WIND        PRES    VSBY  WAVE
                          AIR SEA DIR/SP/G                  HT/PER
                          (F)     (DEG/KT/KT) (MB)    (MI)  (FT/S)
WAUKEGAN HARBOR            46     240/ 14/ 21   N/A
HARRISON CRIB              44     200/ 14/ 18   N/A
BURNHAM HARBOR             47     260/  5/ 11   N/A
CALUMET HARBOR             47     210/  8/ 16 1015.6F
MICHIGAN CITY              46     180/ 15/ 18   N/A
$$

ILZ025>027-034>036-040-047-049-050-058-095>099-261900-
WEST-CENTRAL ILLINOIS

CITY           SKY/WX    TMP DP  RH WIND       PRES   REMARKS
QUINCY         FAIR      52  41  66 SW13      29.99F
GALESBURG*     FAIR      51  40  64 SW17G24   29.99S
MACOMB*        FAIR      52  42  70 SW15G21   30.01F
JACKSONVILLE*  FAIR      55  43  63 S15       30.02F
PITTSFIELD*    FAIR      55  44  65 SW17      30.01F
$$

ILZ028>032-037-038-041>044-048-051>054-059>061-261900-
CENTRAL ILLINOIS

CITY           SKY/WX    TMP DP  RH WIND       PRES   REMARKS
PONTIAC        FAIR      50  41  72 SW13      30.03F
BLOOMINGTON    FAIR      50  42  73 SW20      30.04F
DECATUR        FAIR      52  42  69 SW18G24   30.07F
PEORIA         FAIR      51  39  63 SW10      30.01F
6HR MIN TEMP:  36; 6HR MAX TEMP:  51;

LACON*         FAIR      46  37  69 S12G17    30.00F
LINCOLN*       FAIR      52  42  67 S12       30.03F
SPRINGFIELD    FAIR      53  42  66 S14       30.04F
6HR MIN TEMP:  39; 6HR MAX TEMP:  53;

TAYLORVILLE    FAIR      50  41  71 S18       30.06F
$$

ILZ033-039-045-046-055>057-062-063-261900-
EAST-CENTRAL ILLINOIS

CITY           SKY/WX    TMP DP  RH WIND       PRES   REMARKS
CHAMPAIGN      FAIR      50  42  74 S17       30.07F
DANVILLE*      FAIR      48  41  78 SW16      30.06F
RANTOUL*       FAIR      52  43  72 S15       30.06F
MATTOON        FAIR      48  40  73 S10       30.09F
PARIS*         FAIR      48  43  80 S18       30.11F
$$

ILZ079-100>102-261900-
SOUTHWEST ILLINOIS

CITY           SKY/WX    TMP DP  RH WIND       PRES   REMARKS
ALTON          SUNNY     54  41  62 S12G18    30.06F
BELLEVILLE     FAIR      53  43  68 S13       30.07F
CAHOKIA*       FAIR      56  43  61 S12       30.07F
SPARTA*        FAIR      50  43  75 S12G18    30.12F
$$

ILZ064>066-069>071-074>076-080>082-084>086-088>090-092>094-261900-
SOUTH-CENTRAL ILLINOIS

CITY           SKY/WX    TMP DP  RH WIND       PRES   REMARKS
CARBONDALE     FAIR      53  40  61 S14       30.14F
6HR MIN TEMP:  36; 6HR MAX TEMP:  53;

CAIRO*         PTSUNNY   55  41  60 S14       30.19F
EFFINGHAM*     FAIR      53  38  58 S12       30.12F
MARION         PTSUNNY   55  43  62 S17G25    30.15F
MT. VERNON     FAIR      50  39  66 S13       30.14F
CENTRALIA*     FAIR      51  41  68 S14       30.11F
SALEM*         FAIR      54  43  67 S15       30.10F
METROPOLIS*    PTSUNNY   54  42  63 SW9       30.19F
$$

ILZ067-068-072-073-078-083-087-091-261900-
SOUTHEAST ILLINOIS

CITY           SKY/WX    TMP DP  RH WIND       PRES   REMARKS
LAWRENCEVILLE  FAIR      52  41  66 SW13      30.15F
FLORA*         FAIR      51  42  70 S13       30.13F
FAIRFIELD*     FAIR      52  43  70 SW12G21   30.13F
HARRISBURG*    FAIR      54  42  63 SW16G23   30.17F
ROBINSON*      FAIR      50  41  70 SW12      30.15F
CARMI*         FAIR      56  44  64 S14       30.16F
$$

ABBREVIATIONS USED IN REMARKS
   TC - TEMPERATURE IN CELSIUS
  WCI - WIND CHILL INDEX
   HX - HEAT INDEX
  VSB - VISIBILITY
$$



USA.gov is the U.S. government's official web portal to all federal, state and local government web resources and services.